Location: Nitra
(0.0000°N, 18.0833°E)
Time: 22:12:29
(UTC+02:00)

DELFI C3 - Visible Passes

Search period start: 04 June 2023 00:00
Search period end: 14 June 2023 00:00
Orbit: 454 x 466 km, 97.3° (Epoch: 04 June)

Date Brightness Start Highest point End Pass type
(mag) Time Alt. Az. Time Alt. Az. Time Alt. Az.
04 Jun ? 19:19:43 10° SE 19:22:54 33° E 19:26:03 10° NNE visible
05 Jun ? 20:21:16 10° SSW 20:23:44 18° WSW 20:26:11 10° NW visible
06 Jun ? 19:48:20 10° S 19:51:48 68° WSW 19:55:13 10° NNW visible
07 Jun ? 19:16:42 10° SE 19:19:46 29° E 19:22:48 10° NNE visible
08 Jun ? 20:17:40 10° SSW 20:20:18 21° WSW 20:22:57 10° NW visible
09 Jun ? 19:44:39 10° S 19:48:07 80° W 19:51:33 10° NNW visible
10 Jun ? 19:12:56 10° SE 19:15:50 25° E 19:18:42 10° NNE visible
11 Jun ? 20:13:15 10° SSW 20:16:05 24° WSW 20:18:56 10° NW visible
12 Jun ? 19:40:11 10° SSE 19:43:38 83° ENE 19:47:04 10° N visible
13 Jun ? 19:08:25 10° SE 19:11:05 21° E 19:13:42 10° NNE visible
